Wind_Speed
50 50 50 50 49 49 49 50 52 52 53 53 53 51 50 50 51 51 51 51 50 50 50 48 47 47 46 45 44 44 44 43 42 41 40 40 39 38
50 50 49 49 51 51 50 50 52 53 52 51 52 51 51 52 52 53 52 51 51 51 51 51 49 48 48 47 46 47 46 46 45 44 42 42 42 40
49 50 50 50 51 52 51 50 52 53 53 52 53 52 52 52 52 52 52 53 52 50 51 53 52 50 50 49 48 48 48 47 46 45 43 42 42 41
48 50 50 50 51 52 52 51 52 53 54 54 53 53 53 53 53 52 52 53 52 51 50 52 52 52 51 50 50 49 48 47 47 45 44 43 42 42
47 49 49 50 50 52 53 52 52 53 54 55 55 55 54 53 53 53 52 52 52 52 52 52 51 50 51 50 49 49 48 47 47 45 44 43 42 41
45 47 48 49 50 50 52 52 53 54 54 54 55 54 53 53 54 54 54 53 52 51 51 52 52 50 49 49 49 49 49 48 47 46 44 43 42 42
42 44 45 48 49 49 51 52 53 54 53 53 54 54 53 53 53 54 54 53 52 52 51 51 53 52 49 48 50 50 50 49 47 46 45 43 42 42
41 42 44 46 48 49 50 51 53 52 52 52 52 54 54 54 54 54 53 53 52 51 51 50 51 51 51 49 49 50 50 48 46 46 45 44 43 43
41 42 43 45 46 47 49 50 52 52 51 50 51 52 54 54 54 53 54 54 53 52 52 50 51 52 52 51 50 50 50 49 47 46 46 45 43 42
39 41 42 43 44 44 46 47 49 51 51 51 51 51 51 51 51 52 54 54 53 52 52 51 51 52 52 51 51 50 50 50 48 47 47 45 44 43
37 37 37 38 40 41 43 44 46 47 49 49 50 50 50 50 51 51 52 52 52 51 52 52 51 52 51 50 51 50 50 49 48 47 46 44 43 43
37 37 38 39 40 41 42 42 43 44 46 47 47 48 49 49 50 50 51 52 52 51 51 51 51 51 51 50 49 49 48 47 47 46 44 43 42 43
37 39 39 40 40 41 42 42 42 42 43 44 44 45 46 47 47 48 49 50 50 49 49 49 49 50 49 48 47 46 47 47 46 46 46 44 44 43
37 38 40 41 42 42 42 42 42 42 42 43 43 43 44 45 46 46 47 48 49 48 47 47 47 47 47 46 45 44 46 46 46 45 46 45 44 44
38 39 40 41 42 42 43 42 42 42 42 42 43 43 44 44 44 44 44 44 46 46 46 46 46 46 46 44 43 43 43 44 44 44 45 46 45 45
39 40 41 42 42 42 43 43 43 44 43 42 42 42 43 44 43 42 42 42 43 44 45 44 44 44 42 41 41 42 42 43 43 43 44 45 45 44
39 41 41 42 42 42 43 43 43 43 43 43 43 43 43 43 43 42 41 40 40 41 41 42 43 41 39 39 40 42 42 43 42 43 43 43 43 42
40 41 41 42 42 42 42 42 42 42 43 43 43 42 42 42 42 41 41 40 39 38 38 39 40 39 39 39 39 41 42 42 43 42 42 42 41 41
41 41 42 42 42 42 42 42 42 42 42 42 42 42 42 42 42 41 40 39 37 36 37 37 38 38 38 38 38 39 39 40 42 42 42 41 41 41
42 42 43 43 42 42 42 42 42 42 42 42 41 41 41 41 41 40 39 38 37 36 36 36 36 37 37 38 38 38 38 39 40 41 41 41 41 42
42 43 43 42 42 41 41 41 41 40 41 41 41 41 40 39 39 38 37 37 36 36 36 35 35 35 36 37 36 36 37 37 38 38 39 41 41 42
43 42 42 41 41 41 40 39 39 39 39 39 40 40 39 39 37 36 35 35 35 34 34 33 33 33 34 34 34 34 34 35 36 37 37 39 41 41
42 41 41 40 40 39 38 38 38 37 37 37 37 38 38 37 35 33 32 32 31 32 32 32 32 32 33 32 32 32 33 34 35 36 37 37 38 39
Wind_Direction
252 253 256 257 258 261 263 264 265 266 267 267 268 269 269 269 268 267 269 269 268 268 268 267 267 268 269 269 270 271 272 274 275 274 272 271 271 271
252 254 257 257 258 262 264 265 266 267 268 269 269 269 269 269 269 268 268 268 269 269 267 265 265 266 268 268 269 270 272 272 273 273 271 269 268 269
254 255 257 258 259 261 264 267 267 267 269 269 270 270 269 269 269 269 268 268 269 269 269 267 265 265 266 267 269 270 271 271 271 271 269 268 267 266
256 257 258 260 262 264 266 267 267 268 269 269 270 271 270 269 268 269 269 269 269 269 269 268 266 266 266 266 268 269 270 271 271 270 268 267 266 263
259 260 261 262 265 266 266 267 268 269 270 270 269 270 270 268 267 267 268 268 269 269 269 268 266 266 265 266 267 267 269 270 270 268 267 266 264 262
260 261 262 263 265 267 268 269 270 271 271 270 270 271 270 268 266 266 266 267 268 268 268 267 265 265 265 264 265 266 268 269 268 268 266 263 261 260
261 262 263 265 267 269 270 270 271 271 271 271 271 271 270 269 267 266 266 266 267 268 266 266 265 265 264 264 265 265 267 267 267 268 266 262 259 259
265 266 267 267 268 270 271 271 271 271 271 271 271 271 270 269 268 267 266 266 266 267 266 265 265 265 265 265 265 265 265 265 264 265 264 261 259 258
268 269 271 271 271 272 273 273 272 271 271 271 271 271 270 269 268 266 265 265 265 265 265 264 265 266 265 264 264 264 265 264 262 262 261 259 258 256
273 273 274 274 274 275 274 274 273 273 272 271 272 272 271 270 268 266 265 264 265 266 267 266 265 265 265 264 264 265 265 262 259 258 257 257 257 256
277 277 278 277 277 277 278 278 277 274 272 272 273 272 271 270 269 267 265 264 264 266 267 267 265 264 263 264 265 264 263 260 257 255 254 254 254 254
278 279 280 281 280 280 281 280 279 277 275 274 273 272 271 270 268 267 266 265 265 265 266 266 265 263 262 262 263 263 260 257 255 251 251 252 251 251
279 279 281 283 283 283 283 282 280 279 278 276 275 273 272 271 269 269 268 266 266 266 265 265 264 262 262 261 261 259 256 255 254 252 250 250 250 249
282 281 282 283 284 283 282 281 281 279 279 278 277 275 274 273 271 270 269 267 267 267 264 263 263 263 262 261 259 256 254 254 253 252 251 249 249 247
284 283 283 284 285 283 282 281 280 279 279 278 278 277 275 274 273 270 268 268 267 264 263 263 262 262 260 259 257 255 253 251 252 250 250 249 249 247
285 285 285 286 286 284 282 281 281 280 280 279 277 277 277 275 273 269 269 268 267 264 262 261 260 259 258 256 254 252 251 250 250 249 249 249 248 246
286 285 286 287 286 286 285 283 281 280 279 279 278 277 277 277 274 271 271 271 268 265 262 259 258 256 255 255 254 251 251 250 248 248 248 249 247 245
286 287 287 286 286 286 286 285 283 281 280 278 277 276 276 276 274 271 271 271 268 266 263 259 255 254 254 254 253 253 252 251 248 247 245 245 244 242
289 289 289 288 287 287 287 286 284 282 281 279 277 276 275 275 274 271 270 269 267 263 260 257 254 254 253 252 252 252 251 249 247 246 244 241 240 239
289 290 291 290 289 288 287 286 284 282 282 280 278 277 276 276 273 270 268 266 263 261 259 257 254 254 255 254 253 251 249 247 246 244 242 240 239 236
290 291 291 290 290 290 289 287 284 283 282 280 278 277 277 277 274 269 266 264 261 259 258 257 255 255 254 254 253 250 248 245 244 242 241 240 238 236
291 291 291 291 290 290 289 288 286 284 282 280 278 277 276 276 274 269 266 264 261 259 257 255 255 254 254 253 252 250 246 243 241 240 239 239 238 237
292 291 291 291 290 289 288 287 286 285 284 282 280 278 276 274 272 268 266 264 262 258 255 254 254 254 252 252 251 248 244 241 240 240 238 237 237 234
Height
5698 5701 5703 5704 5705 5706 5707 5707 5708 5709 5711 5712 5710 5709 5708 5707 5706 5706 5705 5705 5705 5705 5705 5706 5707 5708 5708 5708 5708 5708 5709 5709 5709 5709 5709 5710 5711 5712
5686 5688 5690 5691 5692 5693 5693 5693 5693 5693 5695 5697 5696 5695 5693 5692 5692 5691 5691 5691 5691 5691 5692 5692 5693 5694 5695 5695 5695 5696 5696 5696 5696 5696 5697 5697 5699 5700
5673 5675 5677 5678 5679 5679 5679 5679 5678 5678 5679 5680 5680 5679 5677 5677 5677 5676 5676 5676 5677 5677 5677 5678 5679 5679 5680 5681 5682 5682 5682 5682 5683 5683 5683 5684 5685 5687
5660 5662 5664 5665 5666 5666 5665 5665 5664 5663 5663 5664 5664 5663 5663 5662 5662 5661 5661 5661 5662 5662 5663 5663 5663 5665 5665 5666 5667 5667 5668 5668 5669 5669 5669 5670 5672 5673
5648 5649 5651 5652 5653 5653 5652 5651 5650 5649 5648 5648 5648 5648 5647 5647 5646 5646 5646 5646 5646 5647 5648 5648 5648 5649 5650 5651 5652 5653 5654 5654 5654 5654 5655 5656 5657 5660
5635 5636 5637 5638 5639 5638 5637 5636 5635 5634 5633 5632 5632 5632 5631 5631 5630 5631 5631 5632 5632 5632 5632 5633 5633 5634 5635 5637 5638 5639 5639 5639 5639 5640 5641 5642 5644 5646
5622 5623 5624 5625 5625 5624 5623 5622 5620 5619 5618 5617 5616 5615 5615 5614 5615 5615 5615 5616 5617 5617 5617 5618 5618 5619 5620 5621 5622 5623 5624 5624 5625 5626 5627 5628 5630 5633
5611 5611 5611 5611 5611 5610 5608 5607 5605 5603 5602 5601 5600 5599 5599 5598 5598 5598 5598 5600 5602 5604 5602 5603 5603 5604 5605 5606 5606 5607 5608 5609 5611 5612 5613 5614 5616 5619
5599 5599 5599 5598 5597 5595 5594 5592 5590 5588 5586 5585 5584 5583 5582 5582 5581 5582 5582 5583 5585 5586 5584 5587 5588 5588 5589 5590 5591 5592 5593 5594 5596 5597 5599 5600 5603 5605
5588 5587 5586 5585 5584 5582 5580 5578 5575 5574 5572 5570 5569 5568 5566 5565 5564 5565 5565 5566 5568 5568 5567 5570 5572 5572 5573 5574 5575 5576 5577 5579 5580 5582 5584 5586 5589 5591
5576 5575 5574 5572 5571 5568 5566 5564 5562 5560 5557 5555 5553 5551 5550 5549 5548 5548 5548 5549 5551 5553 5552 5553 5555 5556 5557 5558 5560 5560 5561 5563 5565 5566 5568 5571 5574 5577
5564 5563 5561 5559 5557 5555 5552 5550 5548 5546 5543 5540 5538 5536 5534 5533 5532 5531 5532 5533 5534 5536 5537 5537 5538 5538 5540 5542 5543 5544 5546 5548 5550 5552 5555 5557 5561 5564
5552 5551 5549 5546 5544 5541 5539 5537 5534 5532 5529 5526 5524 5522 5520 5518 5517 5516 5516 5516 5517 5519 5520 5520 5521 5522 5523 5525 5527 5529 5531 5534 5536 5539 5542 5545 5548 5553
5540 5538 5536 5533 5531 5528 5525 5523 5520 5517 5515 5512 5510 5508 5506 5504 5503 5501 5501 5501 5501 5503 5503 5503 5505 5506 5508 5509 5512 5514 5517 5520 5523 5526 5529 5532 5536 5540
5528 5526 5523 5520 5517 5515 5512 5509 5506 5503 5501 5498 5496 5494 5492 5490 5488 5487 5486 5486 5486 5486 5487 5488 5489 5490 5492 5495 5498 5500 5503 5506 5509 5513 5516 5519 5523 5527
5515 5513 5510 5507 5504 5501 5498 5495 5492 5489 5487 5485 5483 5481 5478 5476 5473 5473 5473 5472 5472 5473 5473 5473 5475 5476 5478 5481 5484 5486 5489 5493 5496 5499 5502 5506 5509 5514
5503 5500 5497 5493 5490 5487 5484 5480 5477 5475 5472 5470 5468 5466 5464 5462 5460 5460 5459 5458 5458 5459 5460 5460 5462 5463 5465 5468 5470 5473 5476 5480 5483 5486 5489 5493 5497 5502
5490 5487 5483 5480 5477 5473 5470 5466 5463 5460 5458 5456 5454 5452 5451 5449 5448 5447 5446 5446 5446 5446 5447 5448 5450 5451 5453 5455 5458 5460 5463 5466 5470 5472 5476 5480 5485 5490
5477 5474 5470 5467 5463 5459 5456 5453 5450 5447 5444 5442 5440 5439 5437 5436 5435 5434 5433 5433 5433 5434 5435 5436 5438 5439 5441 5444 5447 5448 5451 5453 5456 5459 5463 5468 5474 5479
5464 5460 5457 5452 5448 5445 5442 5439 5436 5433 5431 5429 5427 5425 5423 5422 5421 5421 5420 5421 5422 5423 5424 5425 5426 5428 5430 5433 5435 5437 5439 5441 5444 5448 5452 5456 5461 5466
5451 5447 5442 5438 5434 5431 5427 5425 5422 5419 5417 5415 5413 5412 5411 5410 5409 5408 5409 5409 5410 5411 5413 5414 5416 5418 5419 5421 5423 5425 5427 5429 5433 5437 5441 5445 5450 5455
5437 5433 5429 5425 5421 5417 5414 5411 5409 5406 5404 5402 5400 5399 5398 5398 5397 5397 5397 5398 5399 5401 5402 5404 5405 5407 5408 5410 5412 5414 5416 5419 5422 5426 5430 5435 5440 5446
5424 5420 5415 5411 5408 5404 5401 5399 5396 5394 5392 5390 5388 5387 5386 5386 5386 5386 5386 5387 5388 5390 5392 5393 5395 5397 5398 5400 5402 5404 5407 5410 5413 5417 5421 5425 5430 5435